Temp_Advection
nan nan nan nan nan nan nan nan nan nan nan nan nan nan nan nan nan nan nan nan nan nan
nan -0 -0 -0 -0 0 0 0 0 0 -0 -0 -0 -0 -0 -0 -0 -0 -0 -0 -0 nan
nan 0 0 0 0 0 0 0 0 0 -0 -0 -0 -0 -0 -0 -0 -0 -1 -0 -1 nan
nan 0 0 0 0 0 0 0 0 0 0 -0 -0 -0 -0 -0 -0 -0 -1 -1 -0 nan
nan 0 0 0 0 0 0 -0 0 0 0 -0 -0 -0 -0 -0 -0 -0 -0 -0 -0 nan
nan 0 0 0 0 0 0 0 0 0 0 -0 -0 -0 -0 -0 -0 -0 -0 -0 -0 nan
nan 0 0 0 0 0 0 -0 -0 0 0 0 -0 -0 -0 0 0 0 -0 -0 -0 nan
nan 0 0 0 0 0 0 0 0 0 0 0 0 -0 0 0 0 0 0 -0 -0 nan
nan 0 0 0 0 0 0 0 0 0 0 0 -0 -0 0 0 0 0 0 0 0 nan
nan 0 0 0 0 0 0 0 0 0 0 0 -0 -1 -0 0 0 0 -0 -0 0 nan
nan 0 0 0 1 1 0 0 0 0 1 0 0 -0 -0 -0 0 -0 -0 -0 -0 nan
nan 0 -0 1 1 0 0 0 0 0 1 1 0 -0 -0 -0 0 -0 -0 -0 -0 nan
nan 0 1 1 0 1 1 0 0 1 1 1 1 0 0 0 0 0 -0 -0 -0 nan
nan nan nan nan nan nan nan nan nan nan nan nan nan nan nan nan nan nan nan nan nan nan
Wind_Speed
9 9 10 12 13 13 14 14 15 15 14 13 13 13 12 11 10 12 13 14 12 13
10 10 10 11 12 12 13 13 14 13 14 14 14 14 14 14 13 11 13 13 15 14
11 11 11 11 11 12 13 14 14 14 14 14 14 14 13 13 13 13 13 14 14 16
13 12 11 11 11 13 14 15 15 15 15 14 14 14 12 11 11 11 12 12 12 13
16 14 12 12 12 12 13 14 15 15 14 13 13 13 11 10 10 10 10 9 9 12
18 16 14 13 13 13 13 14 14 13 12 12 11 11 9 8 8 8 8 9 9 10
21 19 16 15 14 13 13 13 13 12 10 9 8 9 8 7 7 7 8 9 9 11
23 22 19 17 15 14 14 13 12 11 10 8 7 8 8 7 8 7 7 8 9 12
27 25 22 19 16 15 14 13 12 10 9 8 8 9 9 8 6 7 7 8 10 9
29 27 24 20 18 16 14 13 13 11 10 8 8 11 9 7 6 7 8 9 10 9
31 29 27 23 20 17 13 12 13 12 11 10 10 11 9 7 6 7 9 10 11 11
32 32 29 25 19 16 15 12 13 13 13 11 10 12 11 9 7 7 9 10 10 13
31 33 30 24 19 19 18 12 13 14 14 12 12 14 12 12 7 7 9 8 9 11
28 29 29 26 24 19 18 14 13 14 14 13 12 13 12 13 11 7 10 9 9 10
Wind_Direction
321 327 332 337 339 341 344 345 345 344 343 341 336 332 330 331 341 338 321 312 321 322
313 318 325 330 334 335 335 334 335 335 336 334 329 325 323 323 321 326 321 322 322 320
298 304 313 321 326 329 330 330 331 330 328 327 326 327 330 325 322 322 317 317 319 317
282 289 301 310 319 325 327 328 329 329 328 327 325 327 328 329 327 327 325 326 324 324
274 282 291 300 310 317 321 324 326 328 329 330 330 331 332 333 332 333 333 333 339 340
265 272 279 288 297 306 314 319 323 327 331 333 336 338 340 342 340 340 339 339 345 345
257 263 269 278 287 296 305 313 320 323 326 331 337 331 339 342 343 342 339 342 344 340
252 256 261 268 277 286 296 307 313 313 313 315 315 315 327 329 333 334 339 339 342 332
247 250 254 258 267 277 289 299 303 302 301 303 300 314 322 322 324 326 327 330 335 339
246 246 249 251 257 267 280 292 296 295 291 287 285 309 325 322 319 322 320 327 331 336
248 245 245 247 250 257 268 281 288 287 283 278 280 293 313 328 326 324 324 330 330 323
251 244 243 244 248 260 262 271 285 282 279 275 273 283 293 311 318 329 319 323 329 324
256 247 241 243 244 251 255 258 278 277 276 274 267 275 284 296 309 307 304 316 321 322
262 245 236 234 242 246 256 252 267 272 272 271 269 266 281 287 292 291 293 309 314 309
Height
1494 1492 1490 1488 1486 1483 1481 1479 1476 1474 1471 1469 1467 1465 1463 1461 1458 1457 1454 1453 1451 1449
1492 1490 1488 1486 1484 1481 1479 1476 1474 1472 1470 1467 1465 1463 1461 1459 1457 1454 1452 1451 1449 1448
1489 1488 1487 1484 1482 1479 1477 1475 1473 1470 1468 1465 1463 1461 1459 1457 1455 1453 1451 1450 1448 1446
1486 1485 1484 1482 1480 1478 1475 1473 1470 1468 1465 1463 1461 1459 1457 1455 1453 1452 1450 1448 1447 1444
1483 1482 1480 1479 1477 1475 1474 1471 1469 1466 1464 1461 1459 1457 1455 1454 1453 1451 1449 1447 1445 1443
1477 1478 1477 1476 1475 1473 1471 1469 1467 1464 1462 1460 1458 1456 1454 1453 1452 1450 1448 1446 1444 1441
1470 1471 1472 1472 1471 1470 1469 1467 1464 1462 1460 1458 1457 1455 1453 1452 1450 1450 1448 1445 1443 1440
1466 1465 1466 1466 1467 1466 1465 1464 1462 1460 1458 1456 1455 1453 1451 1450 1449 1447 1446 1445 1443 1440
1459 1459 1459 1460 1461 1462 1461 1460 1459 1457 1456 1454 1452 1450 1448 1447 1446 1446 1444 1443 1441 1440
1453 1453 1454 1454 1455 1456 1456 1455 1454 1454 1453 1451 1450 1447 1446 1444 1443 1442 1442 1440 1438 1438
1447 1448 1448 1449 1450 1451 1451 1451 1450 1449 1449 1448 1446 1444 1444 1442 1441 1440 1439 1437 1435 1435
1439 1442 1443 1444 1446 1446 1447 1446 1447 1446 1445 1445 1444 1441 1440 1441 1438 1438 1437 1435 1433 1431
1433 1433 1437 1441 1441 1442 1442 1442 1442 1443 1442 1441 1441 1439 1437 1438 1437 1436 1434 1433 1431 1429
1427 1429 1431 1434 1435 1437 1438 1437 1438 1438 1438 1437 1437 1437 1435 1435 1435 1433 1432 1430 1428 1427